EW5860 Weather Reports


time (UTC)temp
C
wind
direction
speed
KPH
gust
KPH
rain 1hr
cm
rain 24hr
cm
rain mn
cm
humidity
%
barometer
mb
20260902093055 21 329 0.0 1.6 0.03 1.30 0.03 98 1017.6
20260902091550 21 310 0.0 3.2 0.03 1.30 0.03 98 1017.7
20260902090045 21 290 0.0 1.6 0.03 1.30 0.03 98 1017.5
20260902084549 21 178 0.0 0.0 0.03 1.30 0.03 98 1017.4
20260902083047 21 118 0.0 0.0 0.00 1.27 0.00 98 1017.3
20260902081535 21 126 0.0 3.2 0.00 1.27 0.00 98 1016.9
20260902080035 21 257 0.0 1.6 0.00 1.27 0.00 98 1016.9
20260902074534 21 269 0.0 1.6 0.00 1.27 0.00 98 1016.8
20260902073035 20 267 0.0 0.0 0.00 1.27 0.00 98 1016.9
20260902071537 20 267 0.0 0.0 0.00 1.27 0.00 98 1016.7
20260902070033 20 266 0.0 0.0 0.00 1.27 0.00 98 1016.7
20260902064533 20 266 0.0 0.0 0.00 1.27 0.00 98 1016.8
20260902063033 20 267 0.0 0.0 0.00 1.27 0.00 98 1016.6
20260902061543 20 266 0.0 0.0 0.00 1.27 0.00 98 1016.5
20260902060030 20 267 0.0 0.0 0.00 1.27 0.00 98 1016.7
20260902054534 20 267 0.0 0.0 0.00 1.27 0.00 98 1016.8
20260902053030 20 267 0.0 1.6 0.00 1.27 0.00 98 1016.7
20260902051526 20 34 0.0 1.6 0.00 1.27 0.00 98 1016.4
20260902050026 21 34 0.0 0.0 0.00 1.27 0.00 98 1016.6
20260902044524 21 34 0.0 0.0 0.00 1.30 0.00 98 1017.1
20260902043022 21 34 0.0 0.0 0.00 1.30 0.00 97 1017.0
20260902041520 21 75 0.0 1.6 0.00 1.30 0.00 98 1016.7
20260902040017 21 221 0.0 1.6 0.00 1.30 0.00 97 1016.7
20260902034519 21 253 0.0 0.0 0.00 1.32 1.30 97 1016.5
20260902033017 21 254 0.0 1.6 0.00 1.32 1.30 97 1016.4
20260902031516 21 255 0.0 3.2 0.00 1.32 1.30 97 1015.7
20260902030015 21 247 0.0 3.2 0.00 1.32 1.30 97 1015.5
20260902024521 21 257 0.0 4.8 0.00 1.32 1.30 97 1015.6
20260902023015 21 89 0.0 1.6 0.00 1.32 1.30 97 1014.5
20260902021514 21 104 0.0 1.6 0.00 1.32 1.30 96 1015.0
20260902020020 21 109 0.0 3.2 0.00 1.32 1.30 96 1015.0
20260902014514 21 247 0.0 4.8 0.00 1.32 1.30 96 1014.2
20260902013013 21 258 1.6 8.0 0.00 1.32 1.30 96 1013.9
20260902011512 21 233 0.0 0.0 0.00 1.32 1.30 96 1013.5
20260902010017 21 272 0.0 3.2 0.03 1.32 1.30 95 1013.6
20260902004512 21 54 0.0 1.6 0.03 1.32 1.30 95 1013.8
20260902003012 21 239 0.0 6.4 0.69 1.32 1.30 95 1013.7
20260902001511 22 219 0.0 0.0 1.09 1.32 1.30 93 1014.1
20260902000012 22 333 0.0 8.0 1.22 1.30 1.27 91 1014.7
20260901234510 22 280 6.4 22.5 1.22 1.30 1.27 90 1014.6
20260901233013 25 242 14.5 25.7 0.51 0.58 0.56 81 1013.5
20260901231508 27 205 0.0 3.2 0.13 0.20 0.18 91 1012.6
20260901230007 28 216 0.0 0.0 0.00 0.08 0.05 87 1012.6
20260901224506 29 213 0.0 1.6 0.00 0.08 0.05 84 1012.5
20260901223006 30 213 0.0 1.6 0.00 0.08 0.05 80 1012.4
20260901221505 31 233 0.0 4.8 0.00 0.08 0.05 76 1012.6
20260901220002 31 235 1.6 4.8 0.00 0.08 0.05 73 1012.7
20260901214605 31 222 1.6 6.4 0.00 0.08 0.05 71 1012.4
20260901213115 31 266 1.6 6.4 0.00 0.08 0.05 71 1012.8
20260901211558 32 167 1.6 8.0 0.00 0.08 0.05 69 1012.7
20260901210056 31 255 1.6 8.0 0.00 0.08 0.05 71 1012.6
20260901204552 31 227 1.6 11.3 0.00 0.08 0.05 71 1012.8
20260901203051 31 272 3.2 11.3 0.00 0.08 0.05 71 1012.9
20260901201548 31 220 9.7 19.3 0.00 0.08 0.05 70 1013.1
20260901200047 30 207 12.9 22.5 0.00 0.08 0.05 72 1013.0
20260901194544 30 267 4.8 12.9 0.00 0.13 0.05 73 1013.4
20260901193042 30 212 4.8 9.7 0.00 0.13 0.05 76 1013.5
20260901191541 30 226 1.6 6.4 0.00 0.13 0.05 77 1013.6
20260901190037 29 260 1.6 12.9 0.00 0.13 0.05 77 1013.6
20260901184544 30 256 0.0 8.0 0.00 0.13 0.05 76 1013.8
20260901183038 30 193 1.6 8.0 0.00 0.13 0.05 76 1014.0
20260901181536 30 252 1.6 6.4 0.00 0.13 0.05 76 1014.1
20260901180037 30 237 0.0 11.3 0.00 0.13 0.05 75 1014.1
20260901174533 30 210 4.8 11.3 0.00 0.13 0.05 74 1014.0
20260901173031 29 204 4.8 9.7 0.00 0.13 0.05 74 1013.9
20260901171526 29 235 4.8 19.3 0.00 0.13 0.05 77 1014.1
20260901170023 28 264 1.6 6.4 0.00 0.13 0.05 82 1014.4
20260901164520 27 252 0.0 6.4 0.00 0.13 0.05 84 1014.6
20260901163018 27 189 0.0 3.2 0.00 0.13 0.05 85 1014.8
20260901161513 26 161 0.0 0.0 0.00 0.13 0.05 88 1015.0
20260901160014 26 191 0.0 3.2 0.00 0.13 0.05 92 1015.3
20260901154511 25 219 0.0 3.2 0.00 0.13 0.05 91 1015.4
20260901153010 25 238 0.0 1.6 0.00 0.13 0.05 92 1015.5
20260901151510 25 345 0.0 4.8 0.00 0.13 0.05 91 1015.5
20260901150012 26 211 0.0 0.0 0.00 0.13 0.05 89 1015.5
20260901144508 26 211 0.0 0.0 0.00 0.13 0.05 87 1015.2
20260901143007 26 211 0.0 3.2 0.03 0.13 0.05 86 1015.2
20260901141504 25 175 0.0 0.0 0.03 0.13 0.05 90 1015.3
20260901134619 23 220 0.0 3.2 0.03 0.13 0.05 95 1015.4
20260901133059 22 241 0.0 0.0 0.00 0.10 0.03 96 1015.6
20260901131557 22 263 0.0 3.2 0.00 0.10 0.03 96 1015.6
20260901130051 22 256 0.0 1.6 0.00 0.10 0.03 97 1015.7
20260901124555 22 242 0.0 1.6 0.00 0.10 0.03 97 1015.8
20260901123050 22 17 0.0 3.2 0.00 0.10 0.03 98 1015.6
20260901121548 22 236 0.0 4.8 0.00 0.10 0.03 98 1015.5
20260901120044 21 218 0.0 3.2 0.00 0.10 0.03 99 1015.4
20260901114556 21 279 0.0 0.0 0.00 0.10 0.03 98 1015.5
20260901113041 20 279 0.0 0.0 0.00 0.10 0.03 98 1015.8
20260901111541 20 279 0.0 0.0 0.00 0.10 0.03 98 1015.9
20260901110041 20 279 0.0 0.0 0.00 0.10 0.03 98 1015.7
20260901104539 20 279 0.0 0.0 0.00 0.10 0.03 98 1015.8
20260901103038 20 279 0.0 0.0 0.00 0.10 0.03 98 1015.6
20260901101538 20 279 0.0 0.0 0.00 0.10 0.03 98 1015.7
20260901100042 20 279 0.0 0.0 0.00 0.10 0.03 98 1015.8
20260901094536 20 290 0.0 0.0 0.00 0.10 0.03 98 1015.7